"startDT [UTC]","vpos","CH4 [ppm]","stdev(CH4) [ppm]","CO2 [ppm]","stdev(CO2) [ppm]","H2O_reported [%]","stdev(H2O_reported)","CavityPressure [torr]","CavityTemp [C]","OutletValve","CH4_dry [ppm]","CO2_dry [ppm]","DasTemp [C]","EtalonTemp [C]","WarmBoxTemp [C]","MPVPosition","T_ECpre [C]","T_EC1 [C]","T_EC2 [C]","p_inlet [hPa]","p_in [hPa]","p_out [hPa]","T_inlet [C]","RH_inlet [%]","dwpt_inlet [C]","T_vent [C]","RH_vent [%]","dwpt_vent [C]","flow_vent [l min-1]","flow_inlet [l min-1]","dwpt_sample [C]","T_room [C]"
2015-07-27 00:00:00,3.0,1.87136,0.00328,395.004,5.381,0.2543,0.3617,139.892,45.000,31157.20785,1.87699,396.067,33.000,45.068,45.000,0.00,0.10,-272.73,-272.78,-6,469,-5,23.3,27.9,3.7,23.1,28.6,3.9,5.73,1.85,2.5,27.3
2015-07-27 00:01:00,3.0,1.87449,0.00036,396.804,0.032,0.0479,0.0030,139.995,45.000,30982.97353,1.87533,397.035,33.002,45.068,45.000,0.00,0.10,-272.73,-272.79,-7,470,-5,23.3,27.9,3.7,23.1,28.7,4.0,5.73,1.98,2.5,27.3
2015-07-27 00:02:00,3.0,1.87467,0.00034,397.000,0.110,0.0406,0.0028,139.994,45.000,30925.49853,1.87542,397.187,33.000,45.068,45.000,0.00,0.10,-272.74,-272.80,-6,470,-5,23.3,27.8,3.7,23.1,28.6,3.9,5.73,1.90,2.5,27.3
2015-07-27 00:03:00,3.0,1.87501,0.00028,397.267,0.060,0.0338,0.0033,139.995,45.000,30881.21740,1.87563,397.426,32.999,45.068,45.000,0.00,0.10,-272.72,-272.79,-6,470,-5,23.3,27.9,3.7,23.1,28.6,3.9,5.73,1.82,2.5,27.4
2015-07-27 00:04:00,3.0,1.87495,0.00040,397.383,0.040,0.0252,0.0026,139.997,45.000,30844.59433,1.87545,397.502,32.989,45.068,45.000,0.00,0.10,-272.73,-272.80,-6,471,-5,23.3,27.8,3.7,23.1,28.6,3.9,5.73,1.89,2.5,27.3
2015-07-27 00:05:00,3.0,1.87485,0.00027,397.420,0.039,0.0203,0.0022,139.998,45.000,30817.92190,1.87523,397.517,32.953,45.068,45.000,0.00,0.32,-270.81,-270.50,-7,471,-5,23.3,27.8,3.7,23.1,28.5,3.9,5.43,2.09,-1.2,27.4
2015-07-27 00:06:00,3.0,1.87492,0.00026,397.446,0.033,0.0152,0.0015,139.997,45.000,30793.76588,1.87517,397.519,32.942,45.068,45.000,0.00,0.10,-272.73,-272.79,-6,472,-5,23.3,27.8,3.7,23.1,28.5,3.9,5.73,1.92,2.5,27.3
2015-07-27 00:07:00,3.0,1.87515,0.00030,397.461,0.031,0.0125,0.0021,140.000,45.000,30776.90117,1.87540,397.522,32.949,45.068,45.000,0.00,0.10,-272.73,-272.79,-6,472,-5,23.3,27.8,3.7,23.1,28.5,3.9,5.73,1.82,2.5,27.3
2015-07-27 00:08:00,3.0,1.87523,0.00046,397.470,0.028,0.0100,0.0017,139.998,45.000,30759.68145,1.87536,397.517,32.948,45.068,45.000,0.00,0.10,-272.74,-272.80,-7,473,-5,23.3,27.8,3.7,23.1,28.6,3.9,5.73,1.88,2.5,27.3
2015-07-27 00:09:00,3.0,1.87514,0.00065,397.501,0.021,0.0096,0.0017,139.997,45.000,30747.27922,1.87540,397.547,32.943,45.068,45.000,0.00,0.10,-272.73,-272.79,-6,473,-5,23.3,27.5,3.5,23.1,28.3,3.8,5.73,1.99,2.5,27.3
2015-07-27 00:10:00,3.0,1.87512,0.00034,397.496,0.037,0.0083,0.0013,139.998,45.000,30736.94403,1.87525,397.536,32.941,45.068,45.000,0.00,0.10,-272.73,-272.79,-6,474,-5,23.3,27.5,3.5,23.1,28.3,3.7,5.73,1.93,2.5,27.2
2015-07-27 00:11:00,3.0,1.87506,0.00032,397.529,0.028,0.0065,0.0027,140.001,45.000,30728.17213,1.87517,397.559,32.938,45.068,45.000,0.00,0.10,-272.74,-272.79,-7,474,-5,23.3,27.5,3.5,23.1,28.3,3.8,5.73,1.82,2.5,27.2
2015-07-27 00:12:00,3.0,1.87547,0.00045,397.548,0.031,0.0069,0.0020,139.998,45.000,30720.08835,1.87558,397.581,32.938,45.068,45.000,0.00,0.10,-272.74,-272.80,-6,475,-5,23.3,27.5,3.5,23.1,28.2,3.7,5.73,1.87,2.5,27.3
2015-07-27 00:13:00,3.0,1.87512,0.00038,397.529,0.042,0.0065,0.0016,139.998,45.000,30714.93709,1.87527,397.560,32.938,45.068,45.000,0.00,0.10,-272.73,-272.79,-6,475,-5,23.4,27.4,3.5,23.1,28.2,3.7,5.73,1.98,2.5,27.3
2015-07-27 00:14:00,3.0,1.87525,0.00034,397.518,0.041,0.0037,0.0017,140.002,45.000,30711.87956,1.87529,397.536,32.937,45.068,45.000,0.00,0.10,-272.74,-272.79,-6,476,-5,23.4,27.5,3.6,23.1,28.2,3.7,5.73,1.94,2.5,27.3
2015-07-27 00:15:00,3.0,1.87547,0.00031,397.526,0.036,0.0053,0.0021,140.000,45.000,30706.72530,1.87558,397.550,32.938,45.068,45.000,0.00,0.10,-272.73,-272.79,-7,476,-5,23.4,27.5,3.5,23.1,28.2,3.7,5.73,1.83,2.5,27.3
2015-07-27 00:16:00,3.0,1.87532,0.00040,397.533,0.034,0.0048,0.0024,139.998,45.000,30704.79714,1.87542,397.557,32.939,45.068,45.000,0.00,0.10,-272.73,-272.79,-6,476,-5,23.4,27.4,3.5,23.2,28.2,3.7,5.73,1.86,2.5,27.3
2015-07-27 00:17:00,3.0,1.87549,0.00040,397.558,0.029,0.0045,0.0013,139.999,45.000,30701.93038,1.87556,397.578,32.947,45.068,45.000,0.00,0.10,-272.73,-272.79,-6,477,-5,23.4,27.3,3.5,23.1,28.1,3.7,5.73,1.97,2.5,27.3
2015-07-27 00:18:00,3.0,1.87553,0.00028,397.553,0.031,0.0036,0.0021,140.003,45.000,30703.11330,1.87558,397.571,32.952,45.068,45.000,0.00,0.10,-272.74,-272.80,-7,477,-5,23.4,27.2,3.5,23.1,28.0,3.6,5.73,1.96,2.5,27.3
2015-07-27 00:19:00,3.0,1.87537,0.00027,397.560,0.029,0.0033,0.0019,139.998,45.000,30700.03499,1.87545,397.575,32.952,45.068,45.000,0.00,0.10,-272.73,-272.80,-6,477,-5,23.4,27.3,3.5,23.2,28.0,3.7,5.73,1.84,2.5,27.3
2015-07-27 00:20:00,0.0,1.88302,0.01031,385.734,4.300,0.8542,0.2710,140.162,45.000,33818.87428,1.89853,389.942,32.955,45.068,45.000,0.00,0.10,-272.72,-272.79,-6,997,-5,23.4,27.3,3.5,23.2,28.1,3.7,5.73,1.82,2.5,27.3
2015-07-27 00:21:00,0.0,1.87936,0.00038,383.982,0.065,0.9796,0.0010,140.004,45.000,34047.65068,1.89806,388.649,32.943,45.068,45.000,0.00,0.10,-272.73,-272.80,-7,997,-5,23.4,27.1,3.4,23.2,28.0,3.6,5.73,1.95,2.5,27.3
2015-07-27 00:22:00,0.0,1.88027,0.00038,383.826,0.170,0.9812,0.0023,139.999,45.000,34110.86278,1.89898,388.508,32.941,45.068,45.000,0.00,0.10,-272.74,-272.79,-7,998,-5,23.4,27.0,3.3,23.2,27.8,3.6,5.73,1.99,2.5,27.3
2015-07-27 00:23:00,0.0,1.87930,0.00073,383.887,0.115,0.9842,0.0018,140.000,45.000,34158.74489,1.89815,388.570,32.941,45.068,45.000,0.00,0.10,-272.73,-272.79,-7,998,-5,23.4,27.1,3.3,23.2,27.8,3.6,5.73,1.96,2.5,27.4
2015-07-27 00:24:00,0.0,1.87888,0.00055,383.980,0.101,0.9826,0.0020,140.003,45.000,34197.36534,1.89764,388.659,32.939,45.068,45.000,0.00,0.10,-272.73,-272.79,-7,998,-5,23.4,27.0,3.3,23.2,27.8,3.5,5.73,1.88,2.5,27.3
2015-07-27 00:25:00,0.0,1.87821,0.00046,384.134,0.047,0.9815,0.0024,140.001,45.000,34228.09986,1.89693,388.815,32.937,45.068,45.000,0.00,0.10,-272.74,-272.80,-7,998,-5,23.4,26.9,3.3,23.2,27.7,3.5,5.73,1.87,2.5,27.3
2015-07-27 00:26:00,0.0,1.87821,0.00042,384.014,0.124,0.9819,0.0032,140.002,45.000,34255.30666,1.89691,388.701,32.937,45.068,45.000,0.00,0.10,-272.73,-272.79,-7,998,-5,23.4,26.9,3.3,23.2,27.6,3.5,5.73,1.93,2.5,27.3
2015-07-27 00:27:00,0.0,1.87891,0.00033,383.766,0.080,0.9877,0.0026,140.005,45.000,34278.77005,1.89778,388.470,32.939,45.068,45.000,0.00,0.10,-272.73,-272.79,-7,998,-5,23.4,27.1,3.4,23.2,27.8,3.6,5.73,1.99,2.5,27.3
2015-07-27 00:28:00,0.0,1.87809,0.00032,383.841,0.087,0.9876,0.0021,140.002,45.000,34298.81881,1.89694,388.547,32.943,45.068,45.000,0.00,0.10,-272.73,-272.80,-7,999,-5,23.4,27.0,3.3,23.2,27.8,3.6,5.73,1.98,2.5,27.3
2015-07-27 00:29:00,0.0,1.87866,0.00036,383.787,0.157,0.9877,0.0020,139.997,45.000,34312.15620,1.89747,388.496,32.947,45.068,45.000,0.00,0.10,-272.73,-272.79,-7,999,-5,23.4,27.0,3.3,23.2,27.8,3.5,5.73,1.90,2.5,27.3
2015-07-27 00:30:00,0.0,1.87849,0.00036,383.631,0.113,0.9881,0.0013,139.999,45.000,34326.21454,1.89738,388.335,32.946,45.068,45.000,0.00,0.10,-272.73,-272.78,-7,998,-5,23.4,27.0,3.3,23.2,27.8,3.6,5.73,1.86,2.5,27.3
2015-07-27 00:31:00,0.0,1.87812,0.00051,383.756,0.238,0.9868,0.0028,140.000,45.000,34338.53451,1.89691,388.463,32.952,45.068,45.000,0.00,0.10,-272.73,-272.79,-7,998,-5,23.4,27.0,3.3,23.2,27.8,3.5,5.73,1.90,2.5,27.3
2015-07-27 00:32:00,0.0,1.87820,0.00047,383.535,0.165,0.9885,0.0024,140.001,45.000,34348.71917,1.89711,388.233,32.954,45.068,45.000,0.00,0.10,-272.73,-272.80,-7,999,-5,23.4,27.0,3.3,23.2,27.8,3.5,5.73,1.98,2.5,27.3
2015-07-27 00:33:00,0.0,1.87834,0.00057,383.682,0.150,0.9880,0.0021,139.999,45.000,34356.08775,1.89716,388.396,32.956,45.068,45.000,0.00,0.10,-272.73,-272.80,-7,999,-5,23.4,27.0,3.3,23.2,27.8,3.6,5.73,1.99,2.5,27.3
2015-07-27 00:34:00,0.0,1.87873,0.00042,383.492,0.121,0.9917,0.0016,140.001,45.000,34366.67649,1.89763,388.209,32.962,45.068,45.000,0.00,0.10,-272.73,-272.79,-7,998,-5,23.4,27.1,3.4,23.2,27.8,3.6,5.73,1.92,2.5,27.3
2015-07-27 00:35:00,0.0,1.87910,0.00032,383.876,0.140,0.9878,0.0014,140.002,45.000,34370.35009,1.89793,388.583,32.951,45.068,45.000,0.00,0.10,-272.73,-272.80,-7,999,-5,23.4,27.0,3.3,23.2,27.8,3.5,5.73,1.86,2.5,27.3
2015-07-27 00:36:00,0.0,1.87877,0.00036,383.767,0.068,0.9897,0.0019,140.001,45.000,34375.39511,1.89767,388.482,32.975,45.068,45.000,0.00,0.10,-272.73,-272.79,-7,999,-5,23.4,27.0,3.3,23.2,27.8,3.6,5.73,1.89,2.5,27.3
2015-07-27 00:37:00,0.0,1.87933,0.00044,383.698,0.159,0.9877,0.0021,139.999,45.000,34380.29129,1.89817,388.410,32.991,45.068,45.000,0.00,0.10,-272.73,-272.79,-7,999,-5,23.4,27.0,3.3,23.2,27.8,3.5,5.73,1.96,2.5,27.3
2015-07-27 00:38:00,0.0,1.87909,0.00049,383.859,0.128,0.9865,0.0022,139.999,45.000,34386.31342,1.89791,388.550,32.996,45.068,45.000,0.00,0.10,-272.74,-272.79,-7,999,-5,23.4,27.0,3.3,23.2,27.7,3.5,5.73,1.99,2.5,27.3
2015-07-27 00:39:00,0.0,1.87901,0.00028,383.644,0.149,0.9883,0.0023,139.997,45.000,34389.66468,1.89791,388.363,32.989,45.068,45.000,0.00,0.10,-272.73,-272.79,-7,998,-5,23.4,27.0,3.3,23.2,27.8,3.5,5.73,1.94,2.5,27.2
2015-07-27 00:40:00,0.0,1.87838,0.00039,383.715,0.258,0.9909,0.0018,139.997,45.000,34390.11305,1.89730,388.431,32.952,45.068,45.000,0.00,0.10,-272.73,-272.79,-7,999,-5,23.4,27.1,3.3,23.1,27.8,3.5,5.73,1.87,2.5,27.2
2015-07-27 00:41:00,0.0,1.87842,0.00046,383.796,0.166,0.9916,0.0021,140.002,45.000,34395.90924,1.89732,388.512,32.939,45.068,45.000,0.00,0.10,-272.73,-272.80,-7,999,-5,23.4,27.1,3.4,23.1,27.8,3.5,5.73,1.87,2.5,27.3
2015-07-27 00:42:00,0.0,1.87897,0.00049,383.573,0.216,0.9939,0.0017,140.002,45.000,34396.37803,1.89796,388.312,32.933,45.068,45.000,0.00,0.10,-272.73,-272.80,-7,999,-5,23.4,27.2,3.4,23.2,27.9,3.6,5.73,1.95,2.5,27.4
2015-07-27 00:43:00,0.0,1.87830,0.00050,383.887,0.160,0.9910,0.0019,140.000,45.000,34395.74361,1.89718,388.613,32.920,45.068,45.000,0.00,0.10,-272.73,-272.79,-7,998,-5,23.4,27.1,3.4,23.2,27.9,3.6,5.73,1.99,2.5,27.3
2015-07-27 00:44:00,0.0,1.87841,0.00046,383.698,0.160,0.9939,0.0014,140.000,45.000,34397.73788,1.89745,388.421,32.885,45.068,45.000,0.00,0.10,-272.73,-272.79,-7,999,-5,23.4,27.2,3.4,23.1,27.9,3.6,5.73,1.96,2.5,27.3
2015-07-27 00:45:00,0.0,1.87804,0.00059,383.792,0.086,0.9917,0.0020,139.999,45.000,34399.66393,1.89694,388.523,32.890,45.069,45.000,0.00,0.10,-272.74,-272.80,-7,999,-5,23.4,27.1,3.4,23.1,27.9,3.6,5.73,1.88,2.5,27.3
2015-07-27 00:46:00,0.0,1.87847,0.00032,383.695,0.099,0.9896,0.0028,139.999,45.000,34400.35516,1.89733,388.409,32.884,45.069,45.001,0.00,0.10,-272.73,-272.79,-7,999,-5,23.4,27.0,3.3,23.2,27.8,3.6,5.73,1.87,2.5,27.3
2015-07-27 00:47:00,0.0,1.87908,0.00034,383.493,0.119,0.9892,0.0021,139.999,45.000,34403.73040,1.89794,388.209,32.902,45.069,45.001,0.00,0.10,-272.73,-272.79,-7,999,-5,23.4,27.0,3.3,23.2,27.7,3.5,5.73,1.92,2.5,27.4
2015-07-27 00:48:00,0.0,1.87851,0.00035,383.847,0.231,0.9888,0.0028,140.002,45.000,34403.36410,1.89740,388.546,32.882,45.068,45.000,0.00,0.10,-272.73,-272.80,-7,999,-5,23.4,27.0,3.3,23.2,27.8,3.5,5.73,1.99,2.5,27.3
2015-07-27 00:49:00,0.0,1.87819,0.00034,383.945,0.158,0.9813,0.0022,139.998,45.000,34404.32155,1.89693,388.623,32.884,45.068,45.000,0.00,0.10,-272.74,-272.80,-7,999,-5,23.4,26.7,3.2,23.2,27.5,3.4,5.73,1.98,2.5,27.3
2015-07-27 00:50:00,0.0,1.87827,0.00032,383.939,0.159,0.9758,0.0029,139.999,45.000,34402.99134,1.89687,388.600,32.888,45.068,45.000,0.00,0.10,-272.73,-272.79,-7,999,-5,23.4,26.6,3.1,23.2,27.4,3.3,5.73,1.90,2.5,27.3
2015-07-27 00:51:00,0.0,1.87842,0.00045,383.914,0.100,0.9748,0.0017,140.002,45.000,34405.20259,1.89700,388.552,32.886,45.068,45.000,0.00,0.10,-272.73,-272.79,-7,999,-5,23.4,26.5,3.1,23.2,27.3,3.3,5.73,1.86,2.5,27.3
2015-07-27 00:52:00,0.0,1.87880,0.00056,383.966,0.114,0.9721,0.0016,140.000,45.000,34404.61983,1.89733,388.602,32.877,45.068,45.000,0.00,0.10,-272.74,-272.79,-7,999,-5,23.4,26.5,3.0,23.2,27.2,3.2,5.73,1.90,2.5,27.3
2015-07-27 00:53:00,0.0,1.87877,0.00048,383.641,0.200,0.9754,0.0019,139.998,45.000,34406.29038,1.89741,388.284,32.881,45.068,45.000,0.00,0.10,-272.73,-272.79,-7,999,-5,23.4,26.6,3.1,23.1,27.3,3.3,5.73,1.97,2.5,27.3
2015-07-27 00:54:00,0.0,1.87851,0.00035,383.824,0.141,0.9753,0.0017,139.998,45.000,34407.35793,1.89710,388.462,32.878,45.068,45.000,0.00,0.10,-272.73,-272.78,-7,999,-5,23.4,26.6,3.1,23.2,27.3,3.3,5.73,1.99,2.5,27.4
2015-07-27 00:55:00,0.0,1.87949,0.00034,383.906,0.096,0.9730,0.0019,140.000,45.000,34409.63491,1.89799,388.546,32.877,45.068,45.000,0.00,0.10,-272.74,-272.80,-7,999,-5,23.4,26.5,3.1,23.1,27.3,3.3,5.73,1.93,2.5,27.3
2015-07-27 00:56:00,0.0,1.87969,0.00043,383.960,0.142,0.9712,0.0023,139.998,45.000,34409.58450,1.89820,388.590,32.879,45.068,45.000,0.00,0.10,-272.74,-272.80,-6,999,-5,23.4,26.5,3.0,23.2,27.2,3.3,5.73,1.87,2.5,27.4
2015-07-27 00:57:00,0.0,1.87972,0.00049,383.617,0.098,0.9737,0.0021,140.000,45.000,34410.09010,1.89836,388.251,32.889,45.068,45.000,0.00,0.10,-272.72,-272.79,-7,999,-5,23.4,26.5,3.1,23.2,27.2,3.3,5.73,1.88,2.5,27.3
2015-07-27 00:58:00,0.0,1.87883,0.00039,383.887,0.131,0.9729,0.0023,140.001,45.000,34411.35639,1.89740,388.516,32.877,45.068,45.000,0.00,0.10,-272.73,-272.79,-7,999,-5,23.4,26.5,3.1,23.2,27.3,3.3,5.73,1.96,2.5,27.3
2015-07-27 00:59:00,0.0,1.87879,0.00044,383.822,0.137,0.9731,0.0026,139.999,45.000,34410.11434,1.89735,388.462,32.878,45.068,45.000,0.00,0.10,-272.73,-272.80,-7,999,-5,23.4,26.5,3.1,23.2,27.2,3.2,5.73,1.99,2.5,27.3
2015-07-27 01:00:00,0.0,1.87855,0.00040,383.857,0.134,0.9771,0.0016,139.999,45.000,34409.82773,1.89720,388.504,32.901,45.068,45.000,0.00,0.10,-272.73,-272.79,-6,999,-5,23.4,26.6,3.1,23.2,27.4,3.3,5.73,1.95,2.5,27.3
2015-07-27 01:01:00,0.0,1.87810,0.00037,383.958,0.100,0.9746,0.0020,139.996,45.000,34409.56571,1.89671,388.604,32.924,45.068,45.000,0.00,0.10,-272.73,-272.79,-7,999,-5,23.4,26.6,3.1,23.1,27.3,3.3,5.73,1.88,2.5,27.3
2015-07-27 01:02:00,0.0,1.87815,0.00042,383.820,0.101,0.9770,0.0019,139.998,45.000,34410.48145,1.89681,388.474,32.938,45.068,45.000,0.00,0.10,-272.73,-272.80,-7,999,-5,23.4,26.6,3.1,23.1,27.4,3.3,5.73,1.87,2.5,27.3
2015-07-27 01:03:00,0.0,1.87791,0.00032,383.830,0.115,0.9760,0.0018,140.002,45.000,34414.80782,1.89650,388.479,32.939,45.068,44.999,0.00,0.10,-272.73,-272.80,-7,999,-5,23.4,26.6,3.1,23.1,27.3,3.3,5.73,1.94,2.5,27.3
2015-07-27 01:04:00,0.0,1.87809,0.00030,383.801,0.168,0.9775,0.0022,140.000,45.000,34414.04281,1.89674,388.455,32.938,45.068,45.000,0.00,0.10,-272.72,-272.79,-6,999,-5,23.4,26.7,3.1,23.1,27.4,3.3,5.73,2.00,2.5,27.3
2015-07-27 01:05:00,0.0,1.87763,0.00030,384.146,0.101,0.9776,0.0011,140.000,45.000,34413.85037,1.89630,388.805,32.937,45.068,45.000,0.00,0.10,-272.74,-272.79,-7,999,-5,23.4,26.6,3.1,23.1,27.4,3.3,5.73,1.96,2.5,27.3
2015-07-27 01:06:00,0.0,1.87778,0.00039,384.103,0.136,0.9761,0.0020,139.997,45.000,34411.10463,1.89638,388.754,32.936,45.068,45.000,0.00,0.10,-272.73,-272.79,-7,999,-5,23.4,26.6,3.1,23.1,27.4,3.3,5.73,1.89,2.5,27.4
2015-07-27 01:07:00,0.0,1.87762,0.00039,384.066,0.103,0.9766,0.0015,140.001,45.000,34410.85539,1.89624,388.725,32.931,45.068,45.000,0.00,0.10,-272.73,-272.78,-7,999,-5,23.4,26.6,3.1,23.1,27.4,3.3,5.73,1.86,2.5,27.4
2015-07-27 01:08:00,0.0,1.87866,0.00058,383.941,0.105,0.9781,0.0016,140.002,45.000,34411.10458,1.89728,388.603,32.930,45.068,45.000,0.00,0.10,-272.73,-272.79,-6,999,-5,23.4,26.7,3.1,23.1,27.4,3.3,5.73,1.91,2.5,27.4
2015-07-27 01:09:00,0.0,1.87867,0.00057,383.963,0.128,0.9781,0.0020,139.998,45.000,34410.44092,1.89729,388.623,32.925,45.068,45.000,0.00,0.10,-272.74,-272.80,-7,999,-5,23.4,26.7,3.1,23.1,27.4,3.3,5.73,1.98,2.5,27.4
2015-07-27 01:10:00,0.0,1.87888,0.00044,383.985,0.099,0.9801,0.0019,139.996,45.000,34410.00950,1.89761,388.650,32.929,45.068,45.000,0.00,0.10,-272.73,-272.80,-7,999,-5,23.4,26.7,3.2,23.1,27.5,3.3,5.73,1.98,2.5,27.4
2015-07-27 01:11:00,0.0,1.87909,0.00047,383.999,0.100,0.9775,0.0021,139.999,45.000,34407.99953,1.89773,388.657,32.937,45.068,45.000,0.00,0.10,-272.72,-272.79,-7,999,-5,23.4,26.7,3.1,23.1,27.4,3.3,5.73,1.91,2.5,27.4
2015-07-27 01:12:00,0.0,1.87848,0.00051,384.170,0.164,0.9754,0.0021,139.998,45.000,34411.63208,1.89707,388.812,32.938,45.068,45.000,0.00,0.10,-272.73,-272.80,-6,999,-5,23.4,26.6,3.1,23.1,27.4,3.3,5.73,1.86,2.5,27.4
2015-07-27 01:13:00,0.0,1.87912,0.00034,384.151,0.149,0.9730,0.0024,140.000,45.000,34408.81618,1.89770,388.796,32.939,45.068,45.000,0.00,0.10,-272.73,-272.79,-7,999,-5,23.4,26.5,3.1,23.1,27.3,3.2,5.73,1.90,2.5,27.3
2015-07-27 01:14:00,0.0,1.87868,0.00034,384.259,0.081,0.9732,0.0016,139.994,45.000,34405.98064,1.89724,388.899,32.938,45.068,45.000,0.00,0.10,-272.73,-272.79,-7,999,-5,23.4,26.5,3.1,23.1,27.3,3.2,5.73,1.98,2.5,27.3
2015-07-27 01:15:00,0.0,1.87958,0.00054,384.238,0.125,0.9725,0.0026,139.999,45.000,34405.82124,1.89812,388.875,32.938,45.068,45.000,0.00,0.10,-272.74,-272.80,-7,999,-5,23.4,26.5,3.1,23.1,27.3,3.2,5.73,1.98,2.5,27.3
2015-07-27 01:16:00,0.0,1.87973,0.00038,384.205,0.085,0.9716,0.0023,140.002,45.000,34407.90781,1.89824,388.834,32.938,45.068,45.000,0.00,0.10,-272.74,-272.80,-6,999,-5,23.4,26.5,3.0,23.1,27.3,3.2,5.73,1.92,2.5,27.3
2015-07-27 01:17:00,0.0,1.87960,0.00031,384.141,0.129,0.9730,0.0018,139.999,45.000,34409.44153,1.89820,388.777,32.938,45.068,45.000,0.00,0.10,-272.73,-272.80,-7,999,-5,23.4,26.6,3.1,23.1,27.3,3.2,5.73,1.86,2.5,27.3
2015-07-27 01:18:00,0.0,1.87904,0.00037,384.247,0.111,0.9710,0.0014,139.999,45.000,34409.31565,1.89757,388.881,32.937,45.068,45.000,0.00,0.10,-272.73,-272.79,-7,999,-5,23.4,26.5,3.0,23.1,27.2,3.2,5.73,1.89,2.5,27.3
2015-07-27 01:19:00,0.0,1.87921,0.00036,383.993,0.094,0.9714,0.0010,139.998,45.000,34407.32552,1.89772,388.624,32.936,45.068,45.000,0.00,0.10,-272.73,-272.80,-7,999,-5,23.4,26.5,3.0,23.1,27.2,3.2,5.73,1.97,2.4,27.3
2015-07-27 01:20:00,0.0,1.88025,0.00055,383.576,0.159,0.9702,0.0021,139.997,45.000,34405.93869,1.89874,388.197,32.938,45.068,45.000,0.00,0.10,-272.73,-272.79,-7,999,-5,23.4,26.5,3.0,23.1,27.2,3.2,5.73,1.99,2.5,27.3
2015-07-27 01:21:00,0.0,1.88031,0.00038,383.614,0.258,0.9708,0.0020,140.003,45.000,34406.99250,1.89882,388.234,32.940,45.068,45.000,0.00,0.10,-272.73,-272.79,-7,999,-5,23.4,26.5,3.0,23.1,27.3,3.2,5.73,1.93,2.5,27.4
2015-07-27 01:22:00,0.0,1.87994,0.00036,383.716,0.172,0.9725,0.0018,140.001,45.000,34409.11684,1.89854,388.348,32.940,45.068,45.000,0.00,0.10,-272.73,-272.80,-7,999,-5,23.3,26.6,3.0,23.1,27.3,3.2,5.73,1.87,2.5,27.4
2015-07-27 01:23:00,0.0,1.87949,0.00035,384.122,0.136,0.9721,0.0026,140.000,45.000,34408.12600,1.89803,388.752,32.940,45.068,45.000,0.00,0.10,-272.74,-272.79,-7,998,-5,23.3,26.6,3.1,23.1,27.3,3.3,5.73,1.88,2.5,27.4
2015-07-27 01:24:00,0.0,1.88007,0.00047,383.941,0.077,0.9731,0.0027,139.997,45.000,34407.54419,1.89864,388.575,32.939,45.068,45.000,0.00,0.10,-272.72,-272.79,-7,999,-5,23.3,26.6,3.1,23.1,27.3,3.2,5.73,1.95,2.5,27.4
2015-07-27 01:25:00,0.0,1.88011,0.00038,384.125,0.167,0.9733,0.0019,140.000,45.000,34409.98622,1.89869,388.759,32.938,45.068,45.000,0.00,0.10,-272.73,-272.80,-7,999,-5,23.3,26.6,3.1,23.1,27.3,3.3,5.73,1.99,2.5,27.3
2015-07-27 01:26:00,0.0,1.87948,0.00059,384.176,0.096,0.9738,0.0021,140.001,45.000,34409.48331,1.89811,388.821,32.938,45.068,45.000,0.00,0.10,-272.73,-272.80,-7,999,-5,23.3,26.6,3.1,23.1,27.4,3.3,5.73,1.96,2.4,27.3
2015-07-27 01:27:00,0.0,1.87865,0.00049,384.253,0.102,0.9771,0.0021,140.001,45.000,34411.46761,1.89736,388.908,32.940,45.068,45.000,0.00,0.10,-272.72,-272.79,-7,999,-5,23.3,26.7,3.1,23.1,27.4,3.3,5.73,1.88,2.5,27.3
2015-07-27 01:28:00,0.0,1.87838,0.00057,384.248,0.142,0.9752,0.0012,139.999,45.000,34411.30160,1.89692,388.895,32.939,45.068,45.000,0.00,0.10,-272.73,-272.79,-7,999,-5,23.3,26.7,3.1,23.1,27.4,3.3,5.73,1.86,2.5,27.4
2015-07-27 01:29:00,0.0,1.87913,0.00036,384.327,0.109,0.9769,0.0021,139.999,45.000,34410.46234,1.89773,388.991,32.940,45.068,45.000,0.00,0.10,-272.74,-272.80,-7,999,-5,23.3,26.7,3.1,23.1,27.4,3.3,5.73,1.93,2.5,27.3
2015-07-27 01:30:00,0.0,1.87914,0.00043,384.086,0.101,0.9781,0.0024,140.000,45.000,34410.12279,1.89784,388.753,32.938,45.068,45.000,0.00,0.10,-272.73,-272.79,-7,999,-5,23.3,26.8,3.1,23.1,27.5,3.3,5.73,1.99,2.5,27.3
2015-07-27 01:31:00,0.0,1.87936,0.00047,383.760,0.099,0.9796,0.0023,139.997,45.000,34410.64620,1.89805,388.429,32.939,45.068,45.000,0.00,0.10,-272.73,-272.79,-7,999,-5,23.3,26.8,3.2,23.1,27.6,3.4,5.73,1.97,2.5,27.3
2015-07-27 01:32:00,0.0,1.87946,0.00033,383.757,0.098,0.9816,0.0017,140.002,45.000,34412.04705,1.89817,388.430,32.941,45.068,45.000,0.00,0.10,-272.74,-272.80,-7,999,-5,23.3,26.8,3.2,23.1,27.6,3.4,5.73,1.90,2.5,27.3
2015-07-27 01:33:00,0.0,1.87901,0.00042,384.318,0.129,0.9749,0.0024,139.998,45.000,34411.12698,1.89759,388.963,32.938,45.068,45.000,0.00,0.10,-272.73,-272.80,-7,999,-5,23.3,26.6,3.1,23.1,27.4,3.3,5.73,1.86,2.5,27.3
2015-07-27 01:34:00,0.0,1.87870,0.00028,384.278,0.105,0.9753,0.0021,140.003,45.000,34412.65632,1.89736,388.925,32.938,45.068,45.000,0.00,0.10,-272.73,-272.79,-7,999,-5,23.3,26.7,3.1,23.1,27.4,3.3,5.73,1.90,2.4,27.3
2015-07-27 01:35:00,0.0,1.87862,0.00034,384.319,0.082,0.9733,0.0020,139.997,45.000,34409.56249,1.89717,388.962,32.940,45.068,45.000,0.00,0.10,-272.73,-272.80,-7,998,-5,23.3,26.6,3.0,23.1,27.4,3.3,5.73,1.98,2.4,27.3
2015-07-27 01:36:00,0.0,1.87857,0.00046,384.383,0.076,0.9713,0.0013,140.000,45.000,34409.88401,1.89712,389.010,32.937,45.068,45.000,0.00,0.10,-272.74,-272.80,-7,999,-5,23.3,26.5,3.0,23.1,27.3,3.2,5.73,1.98,2.4,27.3
2015-07-27 01:37:00,0.0,1.87828,0.00027,384.406,0.111,0.9713,0.0017,140.004,45.000,34409.17069,1.89679,389.043,32.938,45.068,45.000,0.00,0.10,-272.73,-272.79,-7,999,-5,23.3,26.5,3.0,23.1,27.3,3.2,5.73,1.92,2.5,27.3
2015-07-27 01:38:00,0.0,1.87800,0.00048,384.184,0.097,0.9734,0.0021,140.000,45.000,34408.69244,1.89656,388.827,32.935,45.068,45.000,0.00,0.10,-272.73,-272.79,-7,999,-5,23.3,26.6,3.1,23.1,27.3,3.3,5.73,1.86,2.5,27.3
2015-07-27 01:39:00,0.0,1.87822,0.00038,384.228,0.128,0.9763,0.0023,140.002,45.000,34408.60160,1.89684,388.881,32.931,45.068,45.000,0.00,0.10,-272.73,-272.80,-7,998,-5,23.3,26.7,3.1,23.1,27.4,3.3,5.73,1.88,2.4,27.3
2015-07-27 01:40:00,0.0,1.87805,0.00039,384.396,0.125,0.9763,0.0019,140.001,45.000,34408.63544,1.89664,389.048,32.917,45.068,45.000,0.00,0.10,-272.73,-272.80,-7,999,-5,23.3,26.7,3.1,23.1,27.4,3.3,5.73,1.95,2.5,27.3
2015-07-27 01:41:00,0.0,1.87861,0.00031,384.520,0.058,0.9774,0.0019,139.998,45.000,34408.40786,1.89726,389.187,32.922,45.068,45.000,0.00,0.10,-272.73,-272.79,-7,998,-5,23.3,26.7,3.1,23.1,27.5,3.3,5.73,2.00,2.5,27.3
2015-07-27 01:42:00,0.0,1.87860,0.00052,384.242,0.108,0.9789,0.0020,140.001,45.000,34406.44351,1.89729,388.912,32.917,45.068,45.000,0.00,0.10,-272.73,-272.80,-7,999,-5,23.3,26.8,3.2,23.1,27.5,3.4,5.73,1.94,2.4,27.2
2015-07-27 01:43:00,0.0,1.87780,0.00038,384.371,0.063,0.9788,0.0022,139.998,45.000,34406.86886,1.89650,389.041,32.923,45.068,45.000,0.00,0.10,-272.74,-272.80,-7,998,-5,23.3,26.8,3.1,23.1,27.6,3.4,5.73,1.87,2.4,27.3
2015-07-27 01:44:00,0.0,1.87819,0.00057,384.298,0.104,0.9785,0.0018,140.003,45.000,34405.82070,1.89678,388.964,32.938,45.068,45.000,0.00,0.10,-272.73,-272.79,-7,999,-5,23.3,26.8,3.1,23.1,27.5,3.4,5.73,1.87,2.5,27.3
2015-07-27 01:45:00,0.0,1.87874,0.00035,384.058,0.147,0.9800,0.0022,140.000,45.000,34402.50368,1.89741,388.734,32.918,45.068,45.000,0.00,0.10,-272.73,-272.79,-7,999,-5,23.3,26.8,3.2,23.1,27.6,3.4,5.73,1.94,2.5,27.3
2015-07-27 01:46:00,0.0,1.87924,0.00021,384.034,0.200,0.9825,0.0014,139.998,45.000,34403.58647,1.89800,388.717,32.902,45.068,45.000,0.00,0.10,-272.74,-272.80,-7,999,-5,23.3,26.9,3.2,23.1,27.7,3.4,5.73,1.99,2.4,27.3
2015-07-27 01:47:00,0.0,1.87892,0.00039,384.378,0.132,0.9823,0.0017,140.002,45.000,34405.97284,1.89770,389.055,32.919,45.068,45.000,0.00,0.10,-272.73,-272.79,-7,998,-5,23.3,26.8,3.2,23.1,27.6,3.4,5.73,1.97,2.4,27.3
2015-07-27 01:48:00,0.0,1.87822,0.00055,384.383,0.134,0.9819,0.0016,139.997,45.000,34405.99217,1.89699,389.066,32.926,45.068,45.000,0.00,0.10,-272.73,-272.79,-6,998,-5,23.3,26.9,3.2,23.1,27.6,3.4,5.73,1.88,2.4,27.3